[[{"header":{"parameterUnit":"m.s-1","parameterCategory":1,"la1":30.2991,"la2":30.254,"lo1":-89.0895,"lo2":-89.0444,"dy":0.0017,"dx":0.0017,"nx":28,"ny":28,"refTime":"2024-02-06T09:00:00:Z","depth":0,"parameterNumber":2,"parameterNumberName":"U-component_of_WINDS"},"data":[0,0,0,0,0,0,0,0,0,0,0,0,0,0,0,0,0,0,0,0,0,0,0,0,0,0,0,0,0,0,0,0,0,0,0,0,0,0,0,0,0,0,0,0,0,0,0,0,0,0,0,0,0,0,0,0,0,0,-2.4629,-2.4629,0,-2.4688,-2.4689,-2.4689,-2.4607,-2.4604,-2.4601,-2.4599,-2.4663,-2.4668,-2.4672,0,0,0,0,0,0,0,0,0,0,0,0,0,-2.4448,-2.4451,-2.4629,-2.4629,-2.463,-2.4688,-2.4689,-2.469,-2.4608,-2.4604,-2.4601,-2.4597,-2.4662,-2.4667,-2.4673,0,0,0,0,0,0,0,0,0,0,0,0,0,-2.4519,-2.4452,-2.4628,-2.4596,-2.4594,-2.4688,-2.4689,-2.469,-2.4609,-2.4604,-2.46,-2.4596,-2.466,-2.4667,-2.4673,-2.4803,0,0,-2.4694,-2.4697,0,0,0,0,0,0,0,0,-2.4515,-2.4525,-2.46,-2.4599,-2.4596,-2.4636,-2.4648,-2.4728,-2.461,-2.4603,-2.4599,-2.4594,-2.4658,-2.4665,-2.4686,-2.4806,-2.4809,-2.4694,-2.4698,-2.4701,-2.4703,0,0,0,0,0,0,0,-2.451,-2.4522,-2.4652,-2.4601,-2.4599,-2.458,-2.4585,-2.4663,-2.4655,-2.4603,-2.4598,-2.4606,-2.4656,-2.4679,-2.4686,-2.481,-2.4694,-2.47,-2.4704,-2.4707,-2.504,-2.5044,0,0,0,0,0,0,-2.4508,-2.4519,-2.465,-2.4654,-2.4544,-2.4587,-2.4592,-2.4628,-2.4654,-2.4653,-2.4609,-2.4601,-2.467,-2.4679,-2.4688,-2.4842,-2.4701,-2.4707,-2.4711,-2.5035,-2.5041,-2.5046,0,0,0,0,0,0,-2.4505,-2.4521,-2.4648,-2.4585,-2.4599,-2.4594,-2.4635,-2.4631,-2.4654,-2.4658,-2.4656,-2.4634,-2.4667,-2.4679,-2.4775,-2.4843,-2.471,-2.4717,-2.5029,-2.5037,-2.5043,-2.5151,0,0,0,0,0,0,-2.45,-2.452,-2.4569,-2.4586,-2.4603,-2.4733,-2.4639,-2.4635,-2.4665,-2.4656,-2.4681,-2.4681,-2.4664,-2.4765,-2.4781,-2.485,-2.4722,-2.5023,-2.5032,-2.5041,-2.5141,-2.5161,-2.5178,0,0,0,0,0,-2.4494,-2.4597,-2.4571,-2.4588,-2.4664,-2.4737,-2.4746,-2.4724,-2.4671,-2.4721,-2.4723,-2.468,-2.4833,-2.4776,-2.4793,-2.4865,-2.5019,-2.503,-2.504,-2.5133,-2.5157,-2.5177,0,0,0,0,0,0,-2.4589,-2.4599,-2.4571,-2.4683,-2.4709,-2.4723,-2.4784,-2.475,-2.4793,-2.4783,-2.4754,-2.4761,-2.4863,-2.4873,-2.481,-2.4992,-2.4917,-2.4932,-2.4982,-2.5005,-2.5023,-2.5019,-2.4727,0,0,0,0,0,-2.4623,-2.468,-2.4686,-2.4785,-2.4799,-2.479,-2.4821,-2.4801,-2.4828,-2.4839,-2.4849,-2.4878,-2.4932,-2.4969,-2.5019,-2.5142,-2.5147,-2.52,-2.5218,-2.5233,-2.5247,-2.5314,-2.5338,-2.5082,-2.5081,-2.5081,0,0,-2.4694,-2.4706,-2.4745,-2.4804,-2.4822,-2.4884,-2.48,-2.4868,-2.4914,-2.485,-2.4941,-2.4949,-2.4979,-2.509,-2.5139,-2.5101,-2.5318,-2.5247,-2.5259,-2.5265,-2.5327,-2.5351,-2.5373,-2.5089,-2.5088,-2.5086,0,0,-2.4854,-2.4869,-2.4953,-2.4973,-2.5001,-2.4994,-2.5014,-2.5033,-2.5035,-2.5126,-2.5079,-2.5133,-2.5228,-2.5251,-2.5276,-2.5445,-2.5408,-2.5462,-2.5558,-2.5624,-2.5644,-2.5661,-2.5723,-2.5745,-2.5475,-2.5476,-2.5476,0,-2.4939,-2.5029,-2.5001,-2.5073,-2.5101,-2.5044,-2.5129,-2.515,-2.5194,-2.5216,-2.5173,-2.529,-2.5306,-2.5421,-2.5463,-2.5484,-2.5507,-2.546,-2.5643,-2.566,-2.5677,-2.5735,-2.5758,-2.5482,-2.5481,-2.5481,-2.548,0,-2.5133,-2.5195,-2.526,-2.5303,-2.5338,-2.5416,-2.5401,-2.544,-2.5417,-2.5415,-2.5508,-2.5525,-2.5578,-2.5604,-2.5583,-2.5717,-2.5693,-2.5647,-2.5571,-2.5708,-2.5762,-2.5784,-2.5492,-2.5489,-2.5487,-2.5486,0,0,-2.5356,-2.5381,-2.5406,-2.5425,-2.5451,-2.55,-2.5576,-2.5626,-2.5661,-2.5693,-2.5757,-2.5838,-2.5795,-2.5823,-2.5804,-2.5861,-2.5995,-2.5808,-2.5809,-2.5844,-2.6145,-2.618,-2.6207,-2.597,-2.5974,-2.5978,-2.6143,0,-2.5518,-2.5648,-2.5624,-2.5752,-2.581,-2.5757,-2.5823,-2.5847,-2.5847,-2.5897,-2.5897,-2.5955,-2.5894,-2.5911,-2.5965,-2.5968,-2.6056,-2.5955,-2.6031,-2.6034,-2.6026,-2.6235,-2.6272,-2.6428,-2.6164,-2.6168,-2.617,0,-2.5723,-2.5762,-2.5895,-2.5912,-2.5936,-2.5996,-2.604,-2.6088,-2.6115,-2.6111,-2.6142,-2.6112,-2.6189,-2.6111,-2.6217,-2.6149,-2.6179,-2.6185,-2.619,-2.6198,-2.6111,-2.6249,-2.6477,-2.6501,-2.6203,-2.62,-2.6198,0,-2.5875,-2.596,-2.605,-2.6068,-2.609,-2.6134,-2.6145,-2.6167,-2.6199,-2.6239,-2.6259,-2.6308,-2.6334,-2.6373,-2.6357,-2.6302,-2.6467,-2.6388,-2.6467,-2.6468,-2.6505,-2.6504,-2.6742,-2.6523,-2.6522,-2.6522,-2.6521,0,-2.6058,-2.6142,-2.6118,-2.6174,-2.6267,-2.6239,-2.6332,-2.6337,-2.6357,-2.6414,-2.6371,-2.6425,-2.6401,-2.6454,-2.6442,-2.6533,-2.6545,-2.6545,-2.6541,-2.6549,-2.655,-2.6569,-2.6558,-2.6528,-2.6526,-2.6525,-2.6524,0,-2.6243,-2.6231,-2.6326,-2.6339,-2.6344,-2.6412,-2.6424,-2.6477,-2.6472,-2.6545,-2.656,-2.6555,-2.6615,-2.6602,-2.6669,-2.6661,-2.6775,-2.6757,-2.6766,-2.6762,-2.6842,-2.6836,-2.7103,-2.7137,-2.6895,-2.6897,-2.6899,0,-2.6362,-2.6425,-2.6444,-2.6478,-2.6493,-2.6549,-2.6581,-2.6556,-2.6592,-2.6627,-2.6676,-2.6732,-2.6775,-2.6875,-2.6877,-2.6928,-2.6912,-2.7002,-2.6919,-2.6926,-2.6915,-2.6912,-2.6918,-2.7019,-2.7022,-2.7024,-2.7026,0,-2.6574,-2.6564,-2.6611,-2.6657,-2.6696,-2.6731,-2.6762,-2.6792,-2.677,-2.6813,-2.6873,-2.6907,-2.6974,-2.7031,-2.7078,-2.7091,-2.7056,-2.7052,-2.7073,-2.7083,-2.7086,-2.7086,-2.6812,-2.7046,-2.7044,-2.7043,-2.7041,-2.7041,-2.673,-2.6783,-2.6805,-2.686,-2.688,-2.691,-2.696,-2.6961,-2.7011,-2.7063,-2.7046,-2.7115,-2.714,-2.72,-2.7218,-2.7273,-2.7239,-2.727,-2.7278,-2.7286,-2.7296,-2.7076,-2.7281,-2.7281,-2.728,-2.728,-2.7279,0,-2.6941,-2.6952,-2.7002,-2.7046,-2.7089,-2.7049,-2.7081,-2.712,-2.7181,-2.7207,-2.7251,-2.7321,-2.7375,-2.7382,-2.7434,-2.7476,-2.7462,-2.7491,-2.7488,-2.7492,-2.7323,-2.73,-2.7502,-2.7502,-2.7502,-2.7502,-2.7502,-2.7502,-2.7055,-2.7144,-2.7137,-2.7236,-2.7247,-2.7313,-2.7335,-2.7363,-2.7383,-2.7463,-2.7507,-2.7511,-2.7529,-2.7582,-2.7631,-2.7631,-2.7653,-2.7689,-2.7684,-2.7526,-2.7504,-2.7483,-2.7461,-2.7694,-2.7694,-2.7848,-2.785,-2.7851]},{"header":{"parameterUnit":"m.s-1","parameterCategory":1,"la1":30.2991,"la2":30.254,"lo1":-89.0895,"lo2":-89.0444,"dy":0.0017,"dx":0.0017,"nx":28,"ny":28,"refTime":"2024-02-06T09:00:00:Z","depth":0,"parameterNumber":3,"parameterNumberName":"V-component_of_WINDS"},"data":[0,0,0,0,0,0,0,0,0,0,0,0,0,0,0,0,0,0,0,0,0,0,0,0,0,0,0,0,0,0,0,0,0,0,0,0,0,0,0,0,0,0,0,0,0,0,0,0,0,0,0,0,0,0,0,0,0,0,-1.9672,-1.9672,0,-1.9688,-1.9688,-1.9688,-1.9675,-1.9674,-1.9674,-1.9673,-1.9689,-1.9689,-1.969,0,0,0,0,0,0,0,0,0,0,0,0,0,-1.9628,-1.9629,-1.9672,-1.9672,-1.9672,-1.9688,-1.9688,-1.9688,-1.9675,-1.9674,-1.9674,-1.9673,-1.9688,-1.9689,-1.969,0,0,0,0,0,0,0,0,0,0,0,0,0,-1.9646,-1.9629,-1.9672,-1.9668,-1.9667,-1.9688,-1.9688,-1.9688,-1.9675,-1.9674,-1.9674,-1.9673,-1.9688,-1.9689,-1.9691,-1.9716,0,0,-1.9695,-1.9695,0,0,0,0,0,0,0,0,-1.9645,-1.9647,-1.9668,-1.9668,-1.9668,-1.9679,-1.9678,-1.9697,-1.9675,-1.9672,-1.9673,-1.9672,-1.9686,-1.9687,-1.9692,-1.9716,-1.9717,-1.9695,-1.9696,-1.9696,-1.9697,0,0,0,0,0,0,0,-1.9643,-1.9646,-1.9678,-1.9668,-1.9668,-1.9664,-1.9666,-1.9682,-1.9683,-1.9672,-1.9671,-1.9674,-1.9686,-1.9691,-1.9692,-1.9717,-1.9695,-1.9696,-1.9697,-1.9698,-1.9762,-1.9762,0,0,0,0,0,0,-1.9643,-1.9646,-1.9678,-1.9679,-1.9654,-1.9666,-1.9667,-1.9676,-1.9683,-1.9684,-1.9674,-1.9673,-1.9689,-1.9691,-1.9693,-1.9722,-1.9696,-1.9698,-1.9698,-1.9761,-1.9762,-1.9763,0,0,0,0,0,0,-1.9642,-1.9646,-1.9677,-1.9662,-1.9665,-1.9667,-1.9677,-1.9677,-1.9682,-1.9685,-1.9685,-1.9679,-1.9688,-1.9691,-1.971,-1.9722,-1.9698,-1.97,-1.976,-1.9761,-1.9762,-1.978,0,0,0,0,0,0,-1.9641,-1.9646,-1.9656,-1.9662,-1.9666,-1.9694,-1.9678,-1.9678,-1.9684,-1.9683,-1.969,-1.969,-1.9688,-1.9708,-1.9711,-1.9724,-1.9701,-1.9759,-1.976,-1.9762,-1.9779,-1.9782,-1.9785,0,0,0,0,0,-1.9639,-1.966,-1.9656,-1.966,-1.9679,-1.9695,-1.9697,-1.9695,-1.9686,-1.9695,-1.9697,-1.969,-1.972,-1.971,-1.9714,-1.9727,-1.9758,-1.976,-1.9762,-1.9777,-1.9781,-1.9785,0,0,0,0,0,0,-1.9655,-1.9661,-1.9657,-1.9681,-1.9687,-1.9693,-1.9705,-1.97,-1.9709,-1.9707,-1.9704,-1.9705,-1.9725,-1.9728,-1.9716,-1.9751,-1.9737,-1.974,-1.9748,-1.9752,-1.9755,-1.9754,-1.9702,0,0,0,0,0,-1.9661,-1.9674,-1.9679,-1.9699,-1.9703,-1.9703,-1.971,-1.9708,-1.9715,-1.9717,-1.972,-1.9727,-1.9738,-1.9745,-1.9756,-1.9779,-1.978,-1.979,-1.9793,-1.9796,-1.9798,-1.9809,-1.9813,-1.9769,-1.9769,-1.9769,0,0,-1.9674,-1.9679,-1.9688,-1.9702,-1.9707,-1.972,-1.9706,-1.972,-1.9729,-1.9719,-1.9737,-1.974,-1.9747,-1.9768,-1.9777,-1.9771,-1.981,-1.9798,-1.98,-1.9801,-1.9812,-1.9816,-1.982,-1.977,-1.977,-1.977,0,0,-1.9704,-1.971,-1.9727,-1.9732,-1.974,-1.974,-1.9744,-1.975,-1.9751,-1.9769,-1.9762,-1.9772,-1.9792,-1.9797,-1.9802,-1.9833,-1.9826,-1.9836,-1.9853,-1.9864,-1.9867,-1.987,-1.988,-1.9884,-1.9838,-1.9838,-1.9838,0,-1.9719,-1.9739,-1.9736,-1.9751,-1.9757,-1.9749,-1.9765,-1.9771,-1.9781,-1.9785,-1.9778,-1.9801,-1.9806,-1.9827,-1.9835,-1.9839,-1.9843,-1.9835,-1.9867,-1.987,-1.9873,-1.9882,-1.9886,-1.984,-1.9839,-1.9839,-1.9839,0,-1.9756,-1.977,-1.9782,-1.9793,-1.9801,-1.9816,-1.9815,-1.9823,-1.982,-1.9821,-1.9839,-1.9843,-1.9854,-1.9859,-1.9856,-1.988,-1.9875,-1.9868,-1.9854,-1.9878,-1.9887,-1.9891,-1.9841,-1.9841,-1.984,-1.984,0,0,-1.9797,-1.9805,-1.981,-1.9814,-1.9821,-1.9831,-1.9846,-1.9857,-1.9863,-1.9871,-1.9882,-1.9899,-1.9891,-1.9897,-1.9894,-1.9904,-1.9927,-1.9895,-1.9895,-1.99,-1.9952,-1.9957,-1.9962,-1.9923,-1.9924,-1.9924,-1.9951,0,-1.9826,-1.9852,-1.985,-1.9874,-1.9886,-1.9878,-1.9891,-1.9896,-1.9897,-1.9907,-1.9907,-1.9919,-1.9909,-1.9912,-1.9921,-1.9922,-1.9937,-1.9921,-1.9933,-1.9933,-1.9931,-1.9967,-1.9972,-1.9998,-1.9955,-1.9956,-1.9956,0,-1.9864,-1.9873,-1.9898,-1.9903,-1.9908,-1.992,-1.9928,-1.9938,-1.9944,-1.9944,-1.995,-1.9945,-1.9959,-1.9946,-1.9965,-1.9953,-1.9958,-1.9959,-1.996,-1.9961,-1.9946,-1.9967,-2.0006,-2.0009,-1.9962,-1.9961,-1.9961,0,-1.989,-1.9908,-1.9925,-1.9929,-1.9935,-1.9943,-1.9946,-1.9951,-1.9958,-1.9965,-1.9969,-1.9978,-1.9983,-1.999,-1.9988,-1.9979,-2.0007,-1.9993,-2.0006,-2.0006,-2.0012,-2.0011,-2.0051,-2.0016,-2.0016,-2.0016,-2.0016,0,-1.9923,-1.9938,-1.9937,-1.9947,-1.9964,-1.9961,-1.9978,-1.998,-1.9984,-1.9994,-1.9988,-1.9997,-1.9994,-2.0003,-2.0002,-2.0017,-2.0019,-2.0019,-2.0018,-2.0019,-2.0019,-2.0022,-2.0019,-2.0017,-2.0017,-2.0017,-2.0017,0,-1.9954,-1.9954,-1.9972,-1.9976,-1.9977,-1.999,-1.9993,-2.0002,-2.0003,-2.0015,-2.0018,-2.0018,-2.0029,-2.0027,-2.0039,-2.0038,-2.0056,-2.0054,-2.0054,-2.0054,-2.0066,-2.0064,-2.0108,-2.0113,-2.0076,-2.0076,-2.0077,0,-1.9975,-1.9986,-1.9992,-1.9998,-2.0001,-2.0012,-2.0018,-2.0015,-2.0022,-2.0029,-2.0037,-2.0047,-2.0055,-2.0072,-2.0072,-2.0081,-2.0078,-2.0093,-2.0079,-2.008,-2.0077,-2.0076,-2.0077,-2.0095,-2.0096,-2.0096,-2.0096,0,-2.0011,-2.001,-2.0019,-2.0028,-2.0035,-2.0042,-2.0048,-2.0054,-2.0051,-2.0059,-2.0069,-2.0075,-2.0087,-2.0096,-2.0104,-2.0107,-2.0101,-2.0101,-2.0104,-2.0104,-2.0104,-2.0103,-2.0061,-2.0099,-2.0099,-2.0099,-2.0099,-2.0099,-2.0037,-2.0046,-2.0051,-2.0061,-2.0065,-2.0071,-2.008,-2.0081,-2.009,-2.0099,-2.0097,-2.0108,-2.0113,-2.0123,-2.0126,-2.0135,-2.013,-2.0134,-2.0135,-2.0136,-2.0137,-2.0103,-2.0137,-2.0136,-2.0136,-2.0136,-2.0136,0,-2.0071,-2.0074,-2.0083,-2.0092,-2.01,-2.0094,-2.01,-2.0107,-2.0117,-2.0122,-2.0129,-2.0141,-2.015,-2.0151,-2.016,-2.0166,-2.0164,-2.0168,-2.0167,-2.0168,-2.0142,-2.0138,-2.017,-2.017,-2.017,-2.017,-2.017,-2.017,-2.009,-2.0106,-2.0105,-2.0123,-2.0125,-2.0136,-2.014,-2.0145,-2.0149,-2.0162,-2.0169,-2.017,-2.0174,-2.0182,-2.019,-2.019,-2.0193,-2.0198,-2.0197,-2.0173,-2.017,-2.0167,-2.0163,-2.0199,-2.0199,-2.0222,-2.0222,-2.0222]}]]